Regional Weather Roundup
Issued by NWS

Home | Current Version | Previous Version | Text Only | Print | Product List | Glossary Off
Versions: 1 2 3 4 5 6 7 8 9 10 11 12 13 14 15 16 17 18 19 20 21 22 23 24 25 26 27 28 29 30 31 32 33 34 35 36 37 38 39 40 41 42 43 44 45 46 47 48 49 50

000
ASUS45 KBOU 280607
RWRCO

WEATHER ROUNDUP FOR COLORADO
NATIONAL WEATHER SERVICE DENVER/BOULDER CO
1200 AM MDT SAT MAR 28 2015

NOTE: "FAIR" INDICATES FEW OR NO CLOUDS BELOW 12000 FEET WITH NO
SIGNIFICANT WEATHER AND/OR OBSTRUCTIONS TO VISIBILITY.

COZ001>005-013-030-031-280700-
...NORTHWEST COLORADO...

CITY           SKY/WX    TMP DP  RH WIND       PRES   REMARKS
CRAIG          PTCLDY    40  30  67 SE6       30.22R
HAYDEN         PTCLDY    41  27  56 SE8       30.23S
MEEKER         PTCLDY    44  29  55 E7        30.26R
MOUNT WERNER   NOT AVBL
STEAMBOAT SPGS CLOUDY    42  32  68 CALM      30.24S
WALDEN         CLEAR     34  28  80 SE9       30.27S WCI  26
$$

COZ006>008-011-280700-
...WEST CENTRAL VALLEYS...

CITY           SKY/WX    TMP DP  RH WIND       PRES   REMARKS
GRAND JUNCTION PTCLDY    50  25  37 E6        30.18R
MONTROSE       CLEAR     49  25  39 SE9       30.26R
EAGLE          PTCLDY    39  27  60 CALM      30.29S
RIFLE          CLEAR     45  28  51 CALM      30.22R
DELTA          CLEAR     49  25  38 E6        30.23R
NUCLA          CLEAR     46  23  39 E9        30.29S
$$

COZ017>023-064>068-280700-
...SOUTHWEST COLORADO...

CITY           SKY/WX    TMP DP  RH WIND       PRES   REMARKS
DURANGO        CLEAR     45  23  42 N10       30.26F
CORTEZ         CLEAR     37  22  54 E5        30.26R
PAGOSA SPRINGS CLEAR     41  21  44 CALM      30.32R
TELLURIDE      PTCLDY    41  23  49 SE5       30.42S
WOLF CREEK PAS PTCLDY    32  14  47 NW7       30.53S WCI  26
$$

COZ009-010-012-014-032>034-037-058>063-280700-
...CENTRAL COLORADO...

CITY           SKY/WX    TMP DP  RH WIND       PRES   REMARKS
ASPEN          CLEAR     37  25  61 S8        30.31S
BUENA VISTA    CLEAR     40  26  58 NW12      30.31S
COPPER MTN     CLEAR     34  18  51 W15G22    30.46S WCI  24
BERTHOUD PASS  FAIR      28  21  74 NW31G41   30.44R WCI  12
COTTONWOOD PAS CLEAR     41  18  38 NW6       30.38S
GUNNISON       CLEAR     36  21  55 CALM      30.36R
KREMMLING      PTCLDY    37  28  70 E7        30.29S
LEADVILLE      CLEAR     28  18  66 CALM      30.37F
SALIDA         CLEAR     43  21  41 SW7       30.37S
SUNLIGHT       PTCLDY    37  23  56 CALM      30.47S
WILKERSON PASS CLEAR     34  18  51 NW9       30.45F WCI  26
$$

COZ069>075-280700-
...SAN LUIS VALLEY/SANGRE DE CRISTO MOUNTAINS...

CITY           SKY/WX    TMP DP  RH WIND       PRES   REMARKS
ALAMOSA        PTCLDY    39  16  39 NE12      30.29R
LA VETA PASS   CLEAR     39  19  45 W9        30.39S
SAGUACHE       CLEAR     43  21  42 NW12      30.31S
$$

COZ035-036-038>040-280700-
...NORTHERN COLORADO FRONT RANGE...

CITY           SKY/WX    TMP DP  RH WIND       PRES   REMARKS
DENVER INTL AP PTCLDY    54  31  41 SW7       30.12F
DMNS CITY PARK   N/A     58  26  29 SW5       30.13S
AURORA         PTCLDY    52  30  43 SW7       30.15F
FRONT RANGE AP PTCLDY    54  32  43 SW9       30.13F
ERIE MUNI ARPT MOCLDY    55  30  39 SW5       30.11F
BOULDER MUN AP PTCLDY    55  28  35 SW9       30.12F
CENTENNIAL     PTCLDY    50  27  40 W12       30.15F
BROOMFIELD     MOCLDY    54  30  40 W12       30.14F
FORT COLLINS   PTCLDY    54  28  37 CALM      30.11F
LONGMONT       PTCLDY    55  32  41 W6        30.13S
$$

COZ041-046-047-076>085-087-088-280700-
...PIKES PEAK/PALMER DIVIDE AND SOUTHERN FOOTHILLS...

CITY           SKY/WX    TMP DP  RH WIND       PRES   REMARKS
COLO. SPRINGS  PTCLDY    47  25  42 N9        30.20S
A. F. ACADEMY  CLEAR     46  23  40 N2        30.21R
ELLICOTT       CLEAR    N/A N/A N/A CALM      30.18F
FALCON         PTCLDY    47  22  37 NW8       30.23S
FORT CARSON    CLEAR     49  29  46 SW2       30.17S
LIMON          CLEAR     44  33  65 W9        30.13R
MONUMENT HILL  PTCLDY    37  27  65 W8        30.21S
TRINIDAD       CLEAR     46  32  58 W8        30.17S
$$

COZ042>045-048>051-090-091-280700-
...NORTHEAST COLORADO...

CITY           SKY/WX    TMP DP  RH WIND       PRES   REMARKS
GREELEY ARPT   PTCLDY    43  25  49 N6        30.08S
AKRON          CLEAR     47  31  53 W10       30.06S
BURLINGTON     CLEAR     44  33  65 W10       30.05S
WRAY           MOCLDY    42  33  68 W7        30.03F
STERLING       CLEAR     41  32  70 W6        30.03F
HOLYOKE        MOCLDY    43  32  65 W8        30.01S
FORT MORGAN    CLEAR     46 -39   2 NW9       30.07S
$$

COZ086-089-092>099-280700-
...SOUTHEAST COLORADO...

CITY           SKY/WX    TMP DP  RH WIND       PRES   REMARKS
PUEBLO         CLEAR     45  34  65 W8        30.13S
LA JUNTA       CLEAR     50  33  52 W12       30.09S
LAMAR          PTCLDY    46  34  62 W8        30.05R
SPRINGFIELD      N/A     47  33  58 W6        30.10S
$$



USA.gov is the U.S. government's official web portal to all federal, state and local government web resources and services.